#timestamp,LO_Frequency,Hit,StdDev 
1635822015.6,286047002.5,N
1635822035.4,286047000.0,N
1635822055.2,286046999.7,N
1635822075.1,286047000.0,N
1635822076.0,286047000.0,N
1635822095.8,286047000.9,N
1635822115.7,286046999.9,N
1635822135.5,286047002.4,N
1635822155.3,286046999.8,N
1635822175.2,286047002.4,N
1635822195.9,286047002.3,N
1635822215.7,286047002.2,N
1635822235.6,286047000.2,N
1635822255.4,286047002.5,N
1635822275.2,286047000.0,N
1635822295.1,286047000.0,N
1635822296.0,286047000.0,N
1635822315.8,286047002.8,N
1635822335.6,286047002.6,N
1635822355.5,286047002.3,N
1635822375.3,286047000.2,N
1635822395.1,286047000.3,N
1635822415.9,286047000.2,N
1635822435.7,286046999.9,N
1635822455.5,286047000.3,N
1635822475.4,286047000.6,N
1635822495.2,286047000.3,N
1635822515.0,286047002.7,N
1635822515.9,286047002.7,N
1635822535.8,286047002.1,N
1635822555.6,286047002.6,N
1635822575.4,286047002.4,N
1635822595.3,286047002.8,N
1635822615.1,286047001.9,N
1635822616.0,286047001.9,N
1635822635.8,286047002.3,N
1635822655.7,286047002.2,N
1635822675.5,286047002.2,N
1635822695.3,286047002.2,N
1635822715.2,286047002.0,N
1635822735.9,286047004.2,Y
1635822755.7,286047000.6,P
1635822775.6,286046999.7,N
1635822795.4,286046999.7,N
1635822815.2,286047002.2,N
1635822835.1,286047004.3,Y
1635822836.0,286047004.3,P
1635822855.8,286047002.3,N
1635822875.6,286046999.8,N
1635822895.5,286047002.0,N
1635822915.3,286047001.5,N
1635822935.1,286047002.6,N
1635822955.9,286047002.4,N
1635822975.7,286047002.1,N
1635822995.5,286047001.9,N
1635823015.4,286047001.8,N
1635823035.2,286047001.8,N
1635823055.0,286047001.5,N
1635823055.9,286047001.5,N
1635823075.8,286047003.9,Y
1635823095.6,286047001.3,P
1635823115.4,286047004.4,P
1635823135.3,286047004.0,N
1635823155.1,286047003.2,N
1635823156.0,286047003.2,N
1635823175.8,286047003.8,Y
1635823195.7,286046999.9,P
1635823215.5,286046999.8,N
1635823235.3,286046999.7,N
1635823255.2,286047002.8,N
1635823275.9,286047000.0,N
1635823295.7,286047000.2,N
1635823315.6,286047002.8,N
1635823335.4,286047001.6,N
1635823355.2,286047001.6,N
1635823375.1,286046999.7,N
1635823376.0,286046999.7,N
1635823395.8,286047002.8,N
1635823415.6,286047002.4,N
1635823435.5,286047004.4,Y
1635823455.3,286047004.4,P
1635823475.1,286047002.7,N
1635823495.9,286047000.4,N
1635823515.7,286046998.5,N
1635823535.5,286046998.5,N
1635823555.4,286047000.7,N
1635823575.2,286046998.3,N
1635823595.0,286046998.7,N
1635823595.9,286046998.7,N
1635823615.8,286046998.3,N
1635823635.6,286046998.8,N
1635823655.4,286046998.4,N
1635823675.3,286046998.3,N
1635823695.1,286046998.3,N
1635823715.8,286046999.2,N
1635823735.7,286047000.8,N
1635823755.5,286047000.4,N
1635823775.3,286047000.7,N
1635823795.2,286046999.8,N
1635823815.9,286047000.8,N
1635823865.8,286046994.9,E
1635823875.7,286046998.7,N
1635823895.5,286047002.3,P
1635823915.4,286047002.6,N
1635823935.2,286047002.7,N
1635823955.0,286047000.9,N
1635823955.9,286047000.9,N
1635823975.8,286047000.8,N
1635823995.6,286047001.2,N
1635824015.4,286047000.8,N
1635824035.3,286046999.9,N
1635824055.1,286046999.9,N
1635824056.0,286046999.9,N
1635824075.8,286046999.8,N
1635824095.7,286047002.3,N
1635824115.5,286047001.5,N
1635824135.3,286047001.9,N
1635824155.2,286047001.7,N
1635824175.9,286047003.7,Y
1635824195.7,286047001.5,P
1635824215.6,286047003.6,P
1635824235.4,286047004.3,P
1635824255.2,286047003.3,N
1635824275.1,286047003.5,N
1635824276.0,286047003.5,N
1635824295.8,286047006.0,Y
1635824315.6,286047002.4,P
1635824335.5,286047002.1,P
1635824355.3,286047001.6,P
1635824375.1,286047003.8,Y
1635824395.9,286047000.7,P
1635824415.7,286047000.5,N
1635824435.5,286047000.3,N
1635824455.4,286047000.2,N
1635824475.2,286046996.9,Y
1635824495.0,286046995.2,P
1635824495.9,286046995.2,N
1635824515.8,286046996.0,N
1635824535.6,286046995.8,N
1635824555.4,286046994.6,N
1635824575.3,286046994.6,N
1635824595.1,286046994.7,N
1635824596.0,286046994.7,N
1635824615.8,286046994.8,N
1635824635.7,286046992.2,Y
1635824655.5,286046999.6,P
1635824675.3,286046999.3,N
1635824695.2,286046996.6,N
1635824715.9,286046997.0,N
1635824735.7,286046997.3,N
1635824755.6,286046995.1,Y
1635824775.4,286046998.3,P
1635824795.2,286046998.3,P
1635824815.1,286046998.1,P
1635824816.0,286046998.1,Y
1635824835.8,286047001.4,P
1635824855.6,286047004.4,N
1635824875.5,286047003.6,N
1635824895.3,286047004.1,N
1635824915.1,286047001.5,N
1635824935.9,286047002.2,N
1635824955.7,286047001.6,N
1635824975.5,286047001.4,N
1635824995.4,286047003.9,N
1635825015.2,286047001.3,N
1635825035.0,286047002.9,N
1635825035.9,286047002.9,N
1635825055.8,286047003.3,N
1635825075.6,286047005.7,Y
1635825095.4,286047001.6,P
1635825115.3,286047001.9,P
1635825135.1,286047001.7,P
1635825155.8,286047001.8,Y
1635825175.7,286046999.8,P
1635825195.5,286047000.0,N
1635825215.3,286047002.3,N
1635825235.2,286047000.1,N
1635825255.0,286047000.4,N
1635825255.9,286047000.4,N
1635825275.7,286047000.9,N
1635825295.6,286046999.9,N
1635825315.4,286047000.2,N
1635825335.2,286047000.1,N
1635825355.1,286047002.4,Y
1635825356.0,286047002.4,P
1635825375.8,286046999.8,N
1635825395.7,286047002.3,N
1635825415.5,286047002.2,N
1635825435.3,286047002.7,N
1635825455.2,286047002.2,N
1635825475.9,286047001.8,N
1635825495.7,286047002.4,N
1635825515.6,286047001.9,N
1635825535.4,286047002.2,N
1635825555.2,286047001.4,N
1635825575.1,286047003.7,Y
1635825576.0,286047003.7,P
1635825595.8,286047002.2,N
